Regional Weather Roundup
Issued by NWS

Home | Current Version | Previous Version | Graphics & Text | Print | Product List | Glossary On
Versions: 1 2 3 4 5 6 7 8 9 10 11 12 13 14 15 16 17 18 19 20 21 22 23 24 25 26 27 28 29 30 31 32 33 34 35 36 37 38 39 40 41 42 43 44 45 46 47 48 49 50
000
ASUS43 KLOT 010200
RWRIL

ILLINOIS REGIONAL WEATHER ROUNDUP
NATIONAL WEATHER SERVICE CHICAGO/ROMEOVILLE IL
800 PM CST SAT JAN 31 2015

NOTE: "FAIR" INDICATES FEW OR NO CLOUDS BELOW 12,000 FEET WITH NO
SIGNIFICANT WEATHER AND/OR OBSTRUCTIONS TO VISIBILITY.

* THESE STATIONS ARE NOT UNDER NWS QUALITY CONTROL. THEY ALSO MAY NOT
  REPORT WEATHER SUCH AS PRECIPITATION OR FOG.

ILZ001-002-007-009-015-016-024-010300-
NORTHWEST ILLINOIS

CITY           SKY/WX    TMP DP  RH WIND       PRES   REMARKS
MOLINE         RAIN      34  32  92 S8        30.12F FOG     WCI  27
STERLING*        N/A    N/A N/A N/A MISG        N/A
$$

ILZ003-004-008-010-011-017-018-010300-
NORTH CENTRAL ILLINOIS

CITY           SKY/WX    TMP DP  RH WIND       PRES   REMARKS
ROCKFORD       LGT SNOW  33  26  75 E6        30.16F WCI  28
$$

ILZ005-006-012>014-019>023-010300-
NORTHEAST ILLINOIS

CITY           SKY/WX    TMP DP  RH WIND       PRES   REMARKS
CHICAGO-OHARE  FLURRIES  34  28  79 CALM      30.16S
CHICAGO-MIDWAY LGT SNOW  36  30  79 CALM      30.17F
AURORA         LGT SNOW  34  31  88 CALM      30.15F VSB 3/4
WAUKEGAN       CLOUDY    32  26  78 NE6       30.17S WCI  26
DUPAGE AIRPORT LGT SNOW  33  30  88 CALM      30.15F FOG
WHEELING       CLOUDY    33  25  72 E5        30.18F WCI  29
NORTHERLY ISL    N/A     33  27  79 CALM        N/A
$$

LMZ740>746-010300-
SOUTHERN LAKE MICHIGAN

STATION/POSITION SKY/WX   TEMP    WIND        PRES    VSBY  WAVE
                          AIR SEA DIR/SP/G                  HT/PER
                          (F)     (DEG/KT/KT) (MB)    (MI)  (FT/S)
WAUKEGAN HARBOR            32      60/  6/  8   N/A
HARRISON CRIB              33      80/  7/  7   N/A
BURNHAM HARBOR             33      CALM  /  3   N/A
CALUMET HARBOR             36     210/  2/  4   N/A
MICHIGAN CITY              34     230/  2/  3   N/A
$$

ILZ025>027-034>036-040-047-049-050-058-095>099-010300-
WEST-CENTRAL ILLINOIS

CITY           SKY/WX    TMP DP  RH WIND       PRES   REMARKS
QUINCY         LGT RAIN  34  32  92 SE9       30.11F FOG     WCI  27
$$

ILZ028>032-037-038-041>044-048-051>054-059>061-010300-
CENTRAL ILLINOIS

CITY           SKY/WX    TMP DP  RH WIND       PRES   REMARKS
DECATUR        CLOUDY    34  32  92 S8        30.19F WCI  27
PEORIA         LGT RAIN  35  33  92 SE5       30.16F FOG     WCI  31
SPRINGFIELD    CLOUDY    35  32  88 SE6       30.17F WCI  30
TAYLORVILLE    NOT AVBL
$$

ILZ033-039-045-046-055>057-062-063-010300-
EAST-CENTRAL ILLINOIS

CITY           SKY/WX    TMP DP  RH WIND       PRES   REMARKS
CHAMPAIGN      LGT RAIN  33  32  96 SE6       30.18F FOG     WCI  28
MATTOON        CLOUDY    34  32  92 S7        30.20F WCI  28
$$

ILZ079-100>102-010300-
SOUTHWEST ILLINOIS

CITY           SKY/WX    TMP DP  RH WIND       PRES   REMARKS
BELLEVILLE     CLOUDY    39  29  67 SE8       30.16F WCI  33
CAHOKIA*       CLOUDY    40  28  62 S8        30.17F
$$

ILZ064>066-069>071-074>076-080>082-084>086-088>090-092>094-010300-
SOUTH-CENTRAL ILLINOIS

CITY           SKY/WX    TMP DP  RH WIND       PRES   REMARKS
CARBONDALE     CLOUDY    40  25  55 SE7       30.18R
MT. VERNON     CLOUDY    39  27  60 E5        30.17F
$$

ILZ067-068-072-073-078-083-087-091-010300-
SOUTHEAST ILLINOIS

CITY           SKY/WX    TMP DP  RH WIND       PRES   REMARKS
LAWRENCEVILLE  CLOUDY    36  30  79 SE6       30.24F WCI  31
$$

ABBREVIATIONS USED IN REMARKS
   TC - TEMPERATURE IN CELSIUS
  WCI - WIND CHILL INDEX
   HX - HEAT INDEX
  VSB - VISIBILITY
$$




USA.gov is the U.S. government's official web portal to all federal, state and local government web resources and services.